Torna al catalogo

STARLINK-32689

AttivoComunicazioniVLEO
NORAD 62440·PAYLOAD·🇺🇸 United States

Lanciato Dec 29, 2024 da Vandenberg Space Force Base

Loading…

Prossimi Passaggi (prossime 24 ore)

TLE

AggiornatoSource: CelesTrak SupGP

Epoca: Sep 14, 2026, 21:39 UTC

1 62440C 24251J   26257.90256944 -.00033984  00000+0 -10037-2 0  2579
2 62440  53.1573 173.6368 0001354  89.1064  37.0151 15.34416991    18

Traccia STARLINK-32689 in tempo reale con AllMySat

Download on the App Store